owner,sensor,date,latitude,longitude,vertical_datum,sea_water_temperature,qcFlag 
DISL,ioos:station:DISL:DISL:1,2016-01-01T00:00:00Z,30.2513,-88.0778,-1.72,17.29,2 
DISL,ioos:station:DISL:DISL:1,2016-01-01T00:30:00Z,30.2513,-88.0778,-1.72,17.34,2 
DISL,ioos:station:DISL:DISL:1,2016-01-01T01:00:00Z,30.2513,-88.0778,-1.72,17.27,2 
DISL,ioos:station:DISL:DISL:1,2016-01-01T01:30:00Z,30.2513,-88.0778,-1.72,16.64,2 
DISL,ioos:station:DISL:DISL:1,2016-01-01T02:00:00Z,30.2513,-88.0778,-1.72,17.05,2 
DISL,ioos:station:DISL:DISL:1,2016-01-01T02:30:00Z,30.2513,-88.0778,-1.72,17.12,2 
DISL,ioos:station:DISL:DISL:1,2016-01-01T03:00:00Z,30.2513,-88.0778,-1.72,17.09,2 
DISL,ioos:station:DISL:DISL:1,2016-01-01T03:30:00Z,30.2513,-88.0778,-1.72,17.09,2 
DISL,ioos:station:DISL:DISL:1,2016-01-01T04:00:00Z,30.2513,-88.0778,-1.72,17.05,2 
DISL,ioos:station:DISL:DISL:1,2016-01-01T04:30:00Z,30.2513,-88.0778,-1.72,16.99,2 
DISL,ioos:station:DISL:DISL:1,2016-01-01T05:00:00Z,30.2513,-88.0778,-1.72,16.9,2 
DISL,ioos:station:DISL:DISL:1,2016-01-01T05:30:00Z,30.2513,-88.0778,-1.72,16.63,2 
DISL,ioos:station:DISL:DISL:1,2016-01-01T06:00:00Z,30.2513,-88.0778,-1.72,16.55,2 
DISL,ioos:station:DISL:DISL:1,2016-01-01T06:30:00Z,30.2513,-88.0778,-1.72,16.52,2 
DISL,ioos:station:DISL:DISL:1,2016-01-01T07:00:00Z,30.2513,-88.0778,-1.72,16.02,2 
DISL,ioos:station:DISL:DISL:1,2016-01-01T07:30:00Z,30.2513,-88.0778,-1.72,15.91,2 
DISL,ioos:station:DISL:DISL:1,2016-01-01T08:00:00Z,30.2513,-88.0778,-1.72,15.86,2 
DISL,ioos:station:DISL:DISL:1,2016-01-01T08:30:00Z,30.2513,-88.0778,-1.72,15.67,2 
DISL,ioos:station:DISL:DISL:1,2016-01-01T09:00:00Z,30.2513,-88.0778,-1.72,15.69,2 
DISL,ioos:station:DISL:DISL:1,2016-01-01T09:30:00Z,30.2513,-88.0778,-1.72,16.04,2 
DISL,ioos:station:DISL:DISL:1,2016-01-01T10:00:00Z,30.2513,-88.0778,-1.72,16.34,2 
DISL,ioos:station:DISL:DISL:1,2016-01-01T10:30:00Z,30.2513,-88.0778,-1.72,16.15,2 
DISL,ioos:station:DISL:DISL:1,2016-01-01T11:00:00Z,30.2513,-88.0778,-1.72,15.8,2 
DISL,ioos:station:DISL:DISL:1,2016-01-01T11:30:00Z,30.2513,-88.0778,-1.72,15.77,2 
DISL,ioos:station:DISL:DISL:1,2016-01-01T12:00:00Z,30.2513,-88.0778,-1.72,15.35,2 
DISL,ioos:station:DISL:DISL:1,2016-01-01T12:30:00Z,30.2513,-88.0778,-1.72,15.01,2 
DISL,ioos:station:DISL:DISL:1,2016-01-01T13:00:00Z,30.2513,-88.0778,-1.72,15.65,2 
DISL,ioos:station:DISL:DISL:1,2016-01-01T13:30:00Z,30.2513,-88.0778,-1.72,15.49,2 
DISL,ioos:station:DISL:DISL:1,2016-01-01T14:00:00Z,30.2513,-88.0778,-1.72,15.61,2 
DISL,ioos:station:DISL:DISL:1,2016-01-01T14:30:00Z,30.2513,-88.0778,-1.72,15.61,2 
DISL,ioos:station:DISL:DISL:1,2016-01-01T15:00:00Z,30.2513,-88.0778,-1.72,15.64,2 
DISL,ioos:station:DISL:DISL:1,2016-01-01T15:30:00Z,30.2513,-88.0778,-1.72,15.65,2 
DISL,ioos:station:DISL:DISL:1,2016-01-01T16:00:00Z,30.2513,-88.0778,-1.72,15.87,2 
DISL,ioos:station:DISL:DISL:1,2016-01-01T16:30:00Z,30.2513,-88.0778,-1.72,15.93,2 
DISL,ioos:station:DISL:DISL:1,2016-01-01T17:00:00Z,30.2513,-88.0778,-1.72,15.82,2 
DISL,ioos:station:DISL:DISL:1,2016-01-01T17:30:00Z,30.2513,-88.0778,-1.72,15.76,2 
DISL,ioos:station:DISL:DISL:1,2016-01-01T18:00:00Z,30.2513,-88.0778,-1.72,15.92,2 
DISL,ioos:station:DISL:DISL:1,2016-01-01T18:30:00Z,30.2513,-88.0778,-1.72,15.75,2 
DISL,ioos:station:DISL:DISL:1,2016-01-01T19:00:00Z,30.2513,-88.0778,-1.72,15.69,2 
DISL,ioos:station:DISL:DISL:1,2016-01-01T19:30:00Z,30.2513,-88.0778,-1.72,15.51,2 
DISL,ioos:station:DISL:DISL:1,2016-01-01T20:00:00Z,30.2513,-88.0778,-1.72,15.12,2 
DISL,ioos:station:DISL:DISL:1,2016-01-01T20:30:00Z,30.2513,-88.0778,-1.72,14.78,2 
DISL,ioos:station:DISL:DISL:1,2016-01-01T21:00:00Z,30.2513,-88.0778,-1.72,14.68,2 
DISL,ioos:station:DISL:DISL:1,2016-01-01T21:30:00Z,30.2513,-88.0778,-1.72,14.37,2 
DISL,ioos:station:DISL:DISL:1,2016-01-01T22:00:00Z,30.2513,-88.0778,-1.72,15.01,2 
DISL,ioos:station:DISL:DISL:1,2016-01-01T22:30:00Z,30.2513,-88.0778,-1.72,15.27,2 
DISL,ioos:station:DISL:DISL:1,2016-01-01T23:00:00Z,30.2513,-88.0778,-1.72,15.16,2 
DISL,ioos:station:DISL:DISL:1,2016-01-01T23:30:00Z,30.2513,-88.0778,-1.72,14.65,2 
DISL,ioos:station:DISL:DISL:1,2016-01-02T00:00:00Z,30.2513,-88.0778,-1.72,13.73,2 
DISL,ioos:station:DISL:DISL:1,2016-01-02T00:30:00Z,30.2513,-88.0778,-1.72,14.33,2 
DISL,ioos:station:DISL:DISL:1,2016-01-02T01:00:00Z,30.2513,-88.0778,-1.72,14.45,2 
DISL,ioos:station:DISL:DISL:1,2016-01-02T01:30:00Z,30.2513,-88.0778,-1.72,14.23,2 
DISL,ioos:station:DISL:DISL:1,2016-01-02T02:00:00Z,30.2513,-88.0778,-1.72,14.1,2 
DISL,ioos:station:DISL:DISL:1,2016-01-02T02:30:00Z,30.2513,-88.0778,-1.72,13.37,2 
DISL,ioos:station:DISL:DISL:1,2016-01-02T03:00:00Z,30.2513,-88.0778,-1.72,14.04,2 
DISL,ioos:station:DISL:DISL:1,2016-01-02T03:30:00Z,30.2513,-88.0778,-1.72,14.29,2 
DISL,ioos:station:DISL:DISL:1,2016-01-02T04:00:00Z,30.2513,-88.0778,-1.72,14.28,2 
DISL,ioos:station:DISL:DISL:1,2016-01-02T04:30:00Z,30.2513,-88.0778,-1.72,14.43,2 
DISL,ioos:station:DISL:DISL:1,2016-01-02T05:00:00Z,30.2513,-88.0778,-1.72,14.83,2 
DISL,ioos:station:DISL:DISL:1,2016-01-02T05:30:00Z,30.2513,-88.0778,-1.72,14.86,2 
DISL,ioos:station:DISL:DISL:1,2016-01-02T06:00:00Z,30.2513,-88.0778,-1.72,14.51,2 
DISL,ioos:station:DISL:DISL:1,2016-01-02T06:30:00Z,30.2513,-88.0778,-1.72,14.48,2 
DISL,ioos:station:DISL:DISL:1,2016-01-02T07:00:00Z,30.2513,-88.0778,-1.72,14.19,2 
DISL,ioos:station:DISL:DISL:1,2016-01-02T07:30:00Z,30.2513,-88.0778,-1.72,13.37,2 
DISL,ioos:station:DISL:DISL:1,2016-01-02T08:00:00Z,30.2513,-88.0778,-1.72,13.92,2 
DISL,ioos:station:DISL:DISL:1,2016-01-02T08:30:00Z,30.2513,-88.0778,-1.72,13.81,2 
DISL,ioos:station:DISL:DISL:1,2016-01-02T09:00:00Z,30.2513,-88.0778,-1.72,13.71,2 
DISL,ioos:station:DISL:DISL:1,2016-01-02T09:30:00Z,30.2513,-88.0778,-1.72,13.3,2 
DISL,ioos:station:DISL:DISL:1,2016-01-02T10:00:00Z,30.2513,-88.0778,-1.72,13.11,2 
DISL,ioos:station:DISL:DISL:1,2016-01-02T10:30:00Z,30.2513,-88.0778,-1.72,13.14,2 
DISL,ioos:station:DISL:DISL:1,2016-01-02T11:00:00Z,30.2513,-88.0778,-1.72,13.59,2 
DISL,ioos:station:DISL:DISL:1,2016-01-02T11:30:00Z,30.2513,-88.0778,-1.72,13.84,2 
DISL,ioos:station:DISL:DISL:1,2016-01-02T12:00:00Z,30.2513,-88.0778,-1.72,14.16,2 
DISL,ioos:station:DISL:DISL:1,2016-01-02T12:30:00Z,30.2513,-88.0778,-1.72,14.14,2 
DISL,ioos:station:DISL:DISL:1,2016-01-02T13:00:00Z,30.2513,-88.0778,-1.72,14.13,2 
DISL,ioos:station:DISL:DISL:1,2016-01-02T13:30:00Z,30.2513,-88.0778,-1.72,14.1,2 
DISL,ioos:station:DISL:DISL:1,2016-01-02T14:00:00Z,30.2513,-88.0778,-1.72,13.99,2 
DISL,ioos:station:DISL:DISL:1,2016-01-02T14:30:00Z,30.2513,-88.0778,-1.72,13.98,2 
DISL,ioos:station:DISL:DISL:1,2016-01-02T15:00:00Z,30.2513,-88.0778,-1.72,13.85,2 
DISL,ioos:station:DISL:DISL:1,2016-01-02T15:30:00Z,30.2513,-88.0778,-1.72,13.56,2 
DISL,ioos:station:DISL:DISL:1,2016-01-02T16:00:00Z,30.2513,-88.0778,-1.72,13.48,2 
DISL,ioos:station:DISL:DISL:1,2016-01-02T16:30:00Z,30.2513,-88.0778,-1.72,13.61,2 
DISL,ioos:station:DISL:DISL:1,2016-01-02T17:00:00Z,30.2513,-88.0778,-1.72,13.72,2 
DISL,ioos:station:DISL:DISL:1,2016-01-02T17:30:00Z,30.2513,-88.0778,-1.72,13.63,2 
DISL,ioos:station:DISL:DISL:1,2016-01-02T18:00:00Z,30.2513,-88.0778,-1.72,13.63,2 
DISL,ioos:station:DISL:DISL:1,2016-01-02T18:30:00Z,30.2513,-88.0778,-1.72,12.86,2 
DISL,ioos:station:DISL:DISL:1,2016-01-02T19:00:00Z,30.2513,-88.0778,-1.72,13.11,2 
DISL,ioos:station:DISL:DISL:1,2016-01-02T19:30:00Z,30.2513,-88.0778,-1.72,12.71,2 
DISL,ioos:station:DISL:DISL:1,2016-01-02T20:00:00Z,30.2513,-88.0778,-1.72,12.65,2 
DISL,ioos:station:DISL:DISL:1,2016-01-02T20:30:00Z,30.2513,-88.0778,-1.72,12.7,2 
DISL,ioos:station:DISL:DISL:1,2016-01-02T21:00:00Z,30.2513,-88.0778,-1.72,12.7,2 
DISL,ioos:station:DISL:DISL:1,2016-01-02T21:30:00Z,30.2513,-88.0778,-1.72,12.67,2 
DISL,ioos:station:DISL:DISL:1,2016-01-02T22:00:00Z,30.2513,-88.0778,-1.72,13.02,2 
DISL,ioos:station:DISL:DISL:1,2016-01-02T22:30:00Z,30.2513,-88.0778,-1.72,12.64,2 
DISL,ioos:station:DISL:DISL:1,2016-01-02T23:00:00Z,30.2513,-88.0778,-1.72,12.51,2 
DISL,ioos:station:DISL:DISL:1,2016-01-02T23:30:00Z,30.2513,-88.0778,-1.72,12.39,2 
DISL,ioos:station:DISL:DISL:1,2016-01-03T00:00:00Z,30.2513,-88.0778,-1.72,12.25,2 
DISL,ioos:station:DISL:DISL:1,2016-01-03T00:30:00Z,30.2513,-88.0778,-1.72,11.89,2 
DISL,ioos:station:DISL:DISL:1,2016-01-03T01:00:00Z,30.2513,-88.0778,-1.72,11.69,2 
DISL,ioos:station:DISL:DISL:1,2016-01-03T01:30:00Z,30.2513,-88.0778,-1.72,11.72,2 
DISL,ioos:station:DISL:DISL:1,2016-01-03T02:00:00Z,30.2513,-88.0778,-1.72,11.78,2 
DISL,ioos:station:DISL:DISL:1,2016-01-03T02:30:00Z,30.2513,-88.0778,-1.72,12.51,2 
DISL,ioos:station:DISL:DISL:1,2016-01-03T03:00:00Z,30.2513,-88.0778,-1.72,12.22,2 
DISL,ioos:station:DISL:DISL:1,2016-01-03T03:30:00Z,30.2513,-88.0778,-1.72,12.77,2 
DISL,ioos:station:DISL:DISL:1,2016-01-03T04:00:00Z,30.2513,-88.0778,-1.72,13.06,2 
DISL,ioos:station:DISL:DISL:1,2016-01-03T04:30:00Z,30.2513,-88.0778,-1.72,12.94,2 
DISL,ioos:station:DISL:DISL:1,2016-01-03T05:00:00Z,30.2513,-88.0778,-1.72,12.53,2 
DISL,ioos:station:DISL:DISL:1,2016-01-03T05:30:00Z,30.2513,-88.0778,-1.72,12.72,2 
DISL,ioos:station:DISL:DISL:1,2016-01-03T06:00:00Z,30.2513,-88.0778,-1.72,12.78,2 
DISL,ioos:station:DISL:DISL:1,2016-01-03T06:30:00Z,30.2513,-88.0778,-1.72,12.8,2 
DISL,ioos:station:DISL:DISL:1,2016-01-03T07:00:00Z,30.2513,-88.0778,-1.72,12.79,2 
DISL,ioos:station:DISL:DISL:1,2016-01-03T07:30:00Z,30.2513,-88.0778,-1.72,12.84,2 
DISL,ioos:station:DISL:DISL:1,2016-01-03T08:00:00Z,30.2513,-88.0778,-1.72,12.94,2 
DISL,ioos:station:DISL:DISL:1,2016-01-03T08:30:00Z,30.2513,-88.0778,-1.72,12.9,2 
DISL,ioos:station:DISL:DISL:1,2016-01-03T09:00:00Z,30.2513,-88.0778,-1.72,12.85,2 
DISL,ioos:station:DISL:DISL:1,2016-01-03T09:30:00Z,30.2513,-88.0778,-1.72,12.8,2 
DISL,ioos:station:DISL:DISL:1,2016-01-03T10:00:00Z,30.2513,-88.0778,-1.72,12.79,2 
DISL,ioos:station:DISL:DISL:1,2016-01-03T10:30:00Z,30.2513,-88.0778,-1.72,12.74,2 
DISL,ioos:station:DISL:DISL:1,2016-01-03T11:00:00Z,30.2513,-88.0778,-1.72,12.71,2 
DISL,ioos:station:DISL:DISL:1,2016-01-03T11:30:00Z,30.2513,-88.0778,-1.72,12.71,2 
DISL,ioos:station:DISL:DISL:1,2016-01-03T12:00:00Z,30.2513,-88.0778,-1.72,12.78,2 
DISL,ioos:station:DISL:DISL:1,2016-01-03T12:30:00Z,30.2513,-88.0778,-1.72,12.8,2 
DISL,ioos:station:DISL:DISL:1,2016-01-03T13:00:00Z,30.2513,-88.0778,-1.72,12.8,2 
DISL,ioos:station:DISL:DISL:1,2016-01-03T13:30:00Z,30.2513,-88.0778,-1.72,12.78,2 
DISL,ioos:station:DISL:DISL:1,2016-01-03T14:00:00Z,30.2513,-88.0778,-1.72,12.59,2 
DISL,ioos:station:DISL:DISL:1,2016-01-03T14:30:00Z,30.2513,-88.0778,-1.72,12.59,2 
DISL,ioos:station:DISL:DISL:1,2016-01-03T15:00:00Z,30.2513,-88.0778,-1.72,12.65,2 
DISL,ioos:station:DISL:DISL:1,2016-01-03T15:30:00Z,30.2513,-88.0778,-1.72,12.62,2 
DISL,ioos:station:DISL:DISL:1,2016-01-03T16:00:00Z,30.2513,-88.0778,-1.72,12.69,2 
DISL,ioos:station:DISL:DISL:1,2016-01-03T16:30:00Z,30.2513,-88.0778,-1.72,12.88,2 
DISL,ioos:station:DISL:DISL:1,2016-01-03T17:00:00Z,30.2513,-88.0778,-1.72,12.84,2 
DISL,ioos:station:DISL:DISL:1,2016-01-03T17:30:00Z,30.2513,-88.0778,-1.72,12.64,2 
DISL,ioos:station:DISL:DISL:1,2016-01-03T18:00:00Z,30.2513,-88.0778,-1.72,12.71,2 
DISL,ioos:station:DISL:DISL:1,2016-01-03T18:30:00Z,30.2513,-88.0778,-1.72,12.7,2 
DISL,ioos:station:DISL:DISL:1,2016-01-03T19:00:00Z,30.2513,-88.0778,-1.72,12.8,2 
DISL,ioos:station:DISL:DISL:1,2016-01-03T19:30:00Z,30.2513,-88.0778,-1.72,12.76,2 
DISL,ioos:station:DISL:DISL:1,2016-01-03T20:00:00Z,30.2513,-88.0778,-1.72,12.89,2 
DISL,ioos:station:DISL:DISL:1,2016-01-03T20:30:00Z,30.2513,-88.0778,-1.72,13.03,2 
DISL,ioos:station:DISL:DISL:1,2016-01-03T21:00:00Z,30.2513,-88.0778,-1.72,13.07,2 
DISL,ioos:station:DISL:DISL:1,2016-01-03T21:30:00Z,30.2513,-88.0778,-1.72,13.94,2 
DISL,ioos:station:DISL:DISL:1,2016-01-03T22:00:00Z,30.2513,-88.0778,-1.72,13.14,2 
DISL,ioos:station:DISL:DISL:1,2016-01-03T22:30:00Z,30.2513,-88.0778,-1.72,12.99,2 
DISL,ioos:station:DISL:DISL:1,2016-01-03T23:00:00Z,30.2513,-88.0778,-1.72,12.65,2 
DISL,ioos:station:DISL:DISL:1,2016-01-03T23:30:00Z,30.2513,-88.0778,-1.72,12.66,2 
DISL,ioos:station:DISL:DISL:1,2016-01-04T00:00:00Z,30.2513,-88.0778,-1.72,12.59,2 
DISL,ioos:station:DISL:DISL:1,2016-01-04T00:30:00Z,30.2513,-88.0778,-1.72,12.33,2 
DISL,ioos:station:DISL:DISL:1,2016-01-04T01:00:00Z,30.2513,-88.0778,-1.72,12.44,2 
DISL,ioos:station:DISL:DISL:1,2016-01-04T01:30:00Z,30.2513,-88.0778,-1.72,12.23,2 
DISL,ioos:station:DISL:DISL:1,2016-01-04T02:00:00Z,30.2513,-88.0778,-1.72,12.31,2 
DISL,ioos:station:DISL:DISL:1,2016-01-04T02:30:00Z,30.2513,-88.0778,-1.72,12.33,2 
DISL,ioos:station:DISL:DISL:1,2016-01-04T03:00:00Z,30.2513,-88.0778,-1.72,12.29,2 
DISL,ioos:station:DISL:DISL:1,2016-01-04T03:30:00Z,30.2513,-88.0778,-1.72,12.01,2 
DISL,ioos:station:DISL:DISL:1,2016-01-04T04:00:00Z,30.2513,-88.0778,-1.72,12.06,2 
DISL,ioos:station:DISL:DISL:1,2016-01-04T04:30:00Z,30.2513,-88.0778,-1.72,12.28,2 
DISL,ioos:station:DISL:DISL:1,2016-01-04T05:00:00Z,30.2513,-88.0778,-1.72,12.18,2 
DISL,ioos:station:DISL:DISL:1,2016-01-04T05:30:00Z,30.2513,-88.0778,-1.72,12.2,2 
DISL,ioos:station:DISL:DISL:1,2016-01-04T06:00:00Z,30.2513,-88.0778,-1.72,12.09,2 
DISL,ioos:station:DISL:DISL:1,2016-01-04T06:30:00Z,30.2513,-88.0778,-1.72,12.13,2 
DISL,ioos:station:DISL:DISL:1,2016-01-04T07:00:00Z,30.2513,-88.0778,-1.72,11.97,2 
DISL,ioos:station:DISL:DISL:1,2016-01-04T07:30:00Z,30.2513,-88.0778,-1.72,12.37,2 
DISL,ioos:station:DISL:DISL:1,2016-01-04T08:00:00Z,30.2513,-88.0778,-1.72,12.29,2 
DISL,ioos:station:DISL:DISL:1,2016-01-04T08:30:00Z,30.2513,-88.0778,-1.72,12.25,2 
DISL,ioos:station:DISL:DISL:1,2016-01-04T09:00:00Z,30.2513,-88.0778,-1.72,12.19,2 
DISL,ioos:station:DISL:DISL:1,2016-01-04T09:30:00Z,30.2513,-88.0778,-1.72,12.1,2 
DISL,ioos:station:DISL:DISL:1,2016-01-04T10:00:00Z,30.2513,-88.0778,-1.72,12.01,2 
DISL,ioos:station:DISL:DISL:1,2016-01-04T10:30:00Z,30.2513,-88.0778,-1.72,11.97,2 
DISL,ioos:station:DISL:DISL:1,2016-01-04T11:00:00Z,30.2513,-88.0778,-1.72,12.01,2 
DISL,ioos:station:DISL:DISL:1,2016-01-04T11:30:00Z,30.2513,-88.0778,-1.72,12.08,2 
DISL,ioos:station:DISL:DISL:1,2016-01-04T12:00:00Z,30.2513,-88.0778,-1.72,12.22,2 
DISL,ioos:station:DISL:DISL:1,2016-01-04T12:30:00Z,30.2513,-88.0778,-1.72,12.12,2 
DISL,ioos:station:DISL:DISL:1,2016-01-04T13:00:00Z,30.2513,-88.0778,-1.72,12.14,2 
DISL,ioos:station:DISL:DISL:1,2016-01-04T13:30:00Z,30.2513,-88.0778,-1.72,11.98,2 
DISL,ioos:station:DISL:DISL:1,2016-01-04T14:00:00Z,30.2513,-88.0778,-1.72,11.95,2 
DISL,ioos:station:DISL:DISL:1,2016-01-04T14:30:00Z,30.2513,-88.0778,-1.72,11.96,2 
DISL,ioos:station:DISL:DISL:1,2016-01-04T15:00:00Z,30.2513,-88.0778,-1.72,11.94,2 
DISL,ioos:station:DISL:DISL:1,2016-01-04T15:30:00Z,30.2513,-88.0778,-1.72,11.97,2 
DISL,ioos:station:DISL:DISL:1,2016-01-04T16:00:00Z,30.2513,-88.0778,-1.72,12.02,2 
DISL,ioos:station:DISL:DISL:1,2016-01-04T16:30:00Z,30.2513,-88.0778,-1.72,12.11,2 
DISL,ioos:station:DISL:DISL:1,2016-01-04T17:00:00Z,30.2513,-88.0778,-1.72,12.11,2 
DISL,ioos:station:DISL:DISL:1,2016-01-04T17:30:00Z,30.2513,-88.0778,-1.72,12.01,2 
DISL,ioos:station:DISL:DISL:1,2016-01-04T18:00:00Z,30.2513,-88.0778,-1.72,11.89,2 
DISL,ioos:station:DISL:DISL:1,2016-01-04T18:30:00Z,30.2513,-88.0778,-1.72,11.82,2 
DISL,ioos:station:DISL:DISL:1,2016-01-04T19:00:00Z,30.2513,-88.0778,-1.72,11.76,2 
DISL,ioos:station:DISL:DISL:1,2016-01-04T19:30:00Z,30.2513,-88.0778,-1.72,11.92,2 
DISL,ioos:station:DISL:DISL:1,2016-01-04T20:00:00Z,30.2513,-88.0778,-1.72,12.28,2 
DISL,ioos:station:DISL:DISL:1,2016-01-04T20:30:00Z,30.2513,-88.0778,-1.72,12.07,2 
DISL,ioos:station:DISL:DISL:1,2016-01-04T21:00:00Z,30.2513,-88.0778,-1.72,12.2,2 
DISL,ioos:station:DISL:DISL:1,2016-01-04T21:30:00Z,30.2513,-88.0778,-1.72,12.18,2 
DISL,ioos:station:DISL:DISL:1,2016-01-04T22:00:00Z,30.2513,-88.0778,-1.72,12.21,2 
DISL,ioos:station:DISL:DISL:1,2016-01-04T22:30:00Z,30.2513,-88.0778,-1.72,12.26,2 
DISL,ioos:station:DISL:DISL:1,2016-01-04T23:00:00Z,30.2513,-88.0778,-1.72,12.17,2 
DISL,ioos:station:DISL:DISL:1,2016-01-04T23:30:00Z,30.2513,-88.0778,-1.72,12.07,2 
DISL,ioos:station:DISL:DISL:1,2016-01-05T00:00:00Z,30.2513,-88.0778,-1.72,12.01,2 
DISL,ioos:station:DISL:DISL:1,2016-01-05T00:30:00Z,30.2513,-88.0778,-1.72,11.77,2 
DISL,ioos:station:DISL:DISL:1,2016-01-05T01:00:00Z,30.2513,-88.0778,-1.72,11.8,2 
DISL,ioos:station:DISL:DISL:1,2016-01-05T01:30:00Z,30.2513,-88.0778,-1.72,12.01,2 
DISL,ioos:station:DISL:DISL:1,2016-01-05T02:00:00Z,30.2513,-88.0778,-1.72,11.97,2 
DISL,ioos:station:DISL:DISL:1,2016-01-05T02:30:00Z,30.2513,-88.0778,-1.72,11.96,2 
DISL,ioos:station:DISL:DISL:1,2016-01-05T03:00:00Z,30.2513,-88.0778,-1.72,11.9,2 
DISL,ioos:station:DISL:DISL:1,2016-01-05T03:30:00Z,30.2513,-88.0778,-1.72,11.85,2 
DISL,ioos:station:DISL:DISL:1,2016-01-05T04:00:00Z,30.2513,-88.0778,-1.72,11.74,2 
DISL,ioos:station:DISL:DISL:1,2016-01-05T04:30:00Z,30.2513,-88.0778,-1.72,11.62,2 
DISL,ioos:station:DISL:DISL:1,2016-01-05T05:00:00Z,30.2513,-88.0778,-1.72,11.54,2 
DISL,ioos:station:DISL:DISL:1,2016-01-05T05:30:00Z,30.2513,-88.0778,-1.72,11.53,2 
DISL,ioos:station:DISL:DISL:1,2016-01-05T06:00:00Z,30.2513,-88.0778,-1.72,11.51,2 
DISL,ioos:station:DISL:DISL:1,2016-01-05T06:30:00Z,30.2513,-88.0778,-1.72,11.54,2 
DISL,ioos:station:DISL:DISL:1,2016-01-05T07:00:00Z,30.2513,-88.0778,-1.72,11.58,2 
DISL,ioos:station:DISL:DISL:1,2016-01-05T07:30:00Z,30.2513,-88.0778,-1.72,11.66,2 
DISL,ioos:station:DISL:DISL:1,2016-01-05T08:00:00Z,30.2513,-88.0778,-1.72,11.67,2 
DISL,ioos:station:DISL:DISL:1,2016-01-05T08:30:00Z,30.2513,-88.0778,-1.72,11.71,2 
DISL,ioos:station:DISL:DISL:1,2016-01-05T09:00:00Z,30.2513,-88.0778,-1.72,11.68,2 
DISL,ioos:station:DISL:DISL:1,2016-01-05T09:30:00Z,30.2513,-88.0778,-1.72,11.7,2 
DISL,ioos:station:DISL:DISL:1,2016-01-05T10:00:00Z,30.2513,-88.0778,-1.72,11.71,2 
DISL,ioos:station:DISL:DISL:1,2016-01-05T10:30:00Z,30.2513,-88.0778,-1.72,11.69,2 
DISL,ioos:station:DISL:DISL:1,2016-01-05T11:00:00Z,30.2513,-88.0778,-1.72,11.62,2 
DISL,ioos:station:DISL:DISL:1,2016-01-05T11:30:00Z,30.2513,-88.0778,-1.72,11.54,2 
DISL,ioos:station:DISL:DISL:1,2016-01-05T12:00:00Z,30.2513,-88.0778,-1.72,11.43,2 
DISL,ioos:station:DISL:DISL:1,2016-01-05T12:30:00Z,30.2513,-88.0778,-1.72,11.39,2 
DISL,ioos:station:DISL:DISL:1,2016-01-05T13:00:00Z,30.2513,-88.0778,-1.72,11.34,2 
DISL,ioos:station:DISL:DISL:1,2016-01-05T13:30:00Z,30.2513,-88.0778,-1.72,11.3,2 
DISL,ioos:station:DISL:DISL:1,2016-01-05T14:00:00Z,30.2513,-88.0778,-1.72,11.25,2 
DISL,ioos:station:DISL:DISL:1,2016-01-05T14:30:00Z,30.2513,-88.0778,-1.72,11.24,2 
DISL,ioos:station:DISL:DISL:1,2016-01-05T15:00:00Z,30.2513,-88.0778,-1.72,11.23,2 
DISL,ioos:station:DISL:DISL:1,2016-01-05T15:30:00Z,30.2513,-88.0778,-1.72,11.29,2 
DISL,ioos:station:DISL:DISL:1,2016-01-05T16:00:00Z,30.2513,-88.0778,-1.72,11.27,2 
DISL,ioos:station:DISL:DISL:1,2016-01-05T16:30:00Z,30.2513,-88.0778,-1.72,11.28,2 
DISL,ioos:station:DISL:DISL:1,2016-01-05T17:00:00Z,30.2513,-88.0778,-1.72,11.39,2 
DISL,ioos:station:DISL:DISL:1,2016-01-05T17:30:00Z,30.2513,-88.0778,-1.72,11.45,2 
DISL,ioos:station:DISL:DISL:1,2016-01-05T18:00:00Z,30.2513,-88.0778,-1.72,11.53,2 
DISL,ioos:station:DISL:DISL:1,2016-01-05T18:30:00Z,30.2513,-88.0778,-1.72,11.6,2 
DISL,ioos:station:DISL:DISL:1,2016-01-05T19:00:00Z,30.2513,-88.0778,-1.72,11.61,2 
DISL,ioos:station:DISL:DISL:1,2016-01-05T19:30:00Z,30.2513,-88.0778,-1.72,11.7,2 
DISL,ioos:station:DISL:DISL:1,2016-01-05T20:00:00Z,30.2513,-88.0778,-1.72,11.65,2 
DISL,ioos:station:DISL:DISL:1,2016-01-05T20:30:00Z,30.2513,-88.0778,-1.72,11.74,2 
DISL,ioos:station:DISL:DISL:1,2016-01-05T21:00:00Z,30.2513,-88.0778,-1.72,11.84,2 
DISL,ioos:station:DISL:DISL:1,2016-01-05T21:30:00Z,30.2513,-88.0778,-1.72,11.88,2 
DISL,ioos:station:DISL:DISL:1,2016-01-05T22:00:00Z,30.2513,-88.0778,-1.72,13.44,2 
DISL,ioos:station:DISL:DISL:1,2016-01-05T22:30:00Z,30.2513,-88.0778,-1.72,15.02,2 
DISL,ioos:station:DISL:DISL:1,2016-01-05T23:00:00Z,30.2513,-88.0778,-1.72,13.88,2 
DISL,ioos:station:DISL:DISL:1,2016-01-05T23:30:00Z,30.2513,-88.0778,-1.72,13.1,2 
DISL,ioos:station:DISL:DISL:1,2016-01-06T00:00:00Z,30.2513,-88.0778,-1.72,13.37,2 
DISL,ioos:station:DISL:DISL:1,2016-01-06T00:30:00Z,30.2513,-88.0778,-1.72,11.97,2 
DISL,ioos:station:DISL:DISL:1,2016-01-06T01:00:00Z,30.2513,-88.0778,-1.72,11.63,2 
DISL,ioos:station:DISL:DISL:1,2016-01-06T01:30:00Z,30.2513,-88.0778,-1.72,11.6,2 
DISL,ioos:station:DISL:DISL:1,2016-01-06T02:00:00Z,30.2513,-88.0778,-1.72,11.58,2 
DISL,ioos:station:DISL:DISL:1,2016-01-06T02:30:00Z,30.2513,-88.0778,-1.72,11.56,2 
DISL,ioos:station:DISL:DISL:1,2016-01-06T03:00:00Z,30.2513,-88.0778,-1.72,11.64,2 
DISL,ioos:station:DISL:DISL:1,2016-01-06T03:30:00Z,30.2513,-88.0778,-1.72,11.77,2 
DISL,ioos:station:DISL:DISL:1,2016-01-06T04:00:00Z,30.2513,-88.0778,-1.72,11.83,2 
DISL,ioos:station:DISL:DISL:1,2016-01-06T04:30:00Z,30.2513,-88.0778,-1.72,11.87,2 
DISL,ioos:station:DISL:DISL:1,2016-01-06T05:00:00Z,30.2513,-88.0778,-1.72,11.89,2 
DISL,ioos:station:DISL:DISL:1,2016-01-06T05:30:00Z,30.2513,-88.0778,-1.72,11.9,2 
DISL,ioos:station:DISL:DISL:1,2016-01-06T06:00:00Z,30.2513,-88.0778,-1.72,11.88,2 
DISL,ioos:station:DISL:DISL:1,2016-01-06T06:30:00Z,30.2513,-88.0778,-1.72,11.84,2 
DISL,ioos:station:DISL:DISL:1,2016-01-06T07:00:00Z,30.2513,-88.0778,-1.72,11.78,2 
DISL,ioos:station:DISL:DISL:1,2016-01-06T07:30:00Z,30.2513,-88.0778,-1.72,11.73,2 
DISL,ioos:station:DISL:DISL:1,2016-01-06T08:00:00Z,30.2513,-88.0778,-1.72,11.7,2 
DISL,ioos:station:DISL:DISL:1,2016-01-06T08:30:00Z,30.2513,-88.0778,-1.72,11.67,2 
DISL,ioos:station:DISL:DISL:1,2016-01-06T09:00:00Z,30.2513,-88.0778,-1.72,11.66,2 
DISL,ioos:station:DISL:DISL:1,2016-01-06T09:30:00Z,30.2513,-88.0778,-1.72,11.78,2 
DISL,ioos:station:DISL:DISL:1,2016-01-06T10:00:00Z,30.2513,-88.0778,-1.72,11.83,2 
DISL,ioos:station:DISL:DISL:1,2016-01-06T10:30:00Z,30.2513,-88.0778,-1.72,11.81,2 
DISL,ioos:station:DISL:DISL:1,2016-01-06T11:00:00Z,30.2513,-88.0778,-1.72,11.76,2 
DISL,ioos:station:DISL:DISL:1,2016-01-06T11:30:00Z,30.2513,-88.0778,-1.72,11.72,2 
DISL,ioos:station:DISL:DISL:1,2016-01-06T12:00:00Z,30.2513,-88.0778,-1.72,11.7,2 
DISL,ioos:station:DISL:DISL:1,2016-01-06T12:30:00Z,30.2513,-88.0778,-1.72,11.66,2 
DISL,ioos:station:DISL:DISL:1,2016-01-06T13:00:00Z,30.2513,-88.0778,-1.72,11.65,2 
DISL,ioos:station:DISL:DISL:1,2016-01-06T13:30:00Z,30.2513,-88.0778,-1.72,11.63,2 
DISL,ioos:station:DISL:DISL:1,2016-01-06T14:00:00Z,30.2513,-88.0778,-1.72,11.64,2 
DISL,ioos:station:DISL:DISL:1,2016-01-06T14:30:00Z,30.2513,-88.0778,-1.72,11.57,2 
DISL,ioos:station:DISL:DISL:1,2016-01-06T15:00:00Z,30.2513,-88.0778,-1.72,11.67,2 
DISL,ioos:station:DISL:DISL:1,2016-01-06T15:30:00Z,30.2513,-88.0778,-1.72,11.69,2 
DISL,ioos:station:DISL:DISL:1,2016-01-06T16:00:00Z,30.2513,-88.0778,-1.72,11.75,2 
DISL,ioos:station:DISL:DISL:1,2016-01-06T16:30:00Z,30.2513,-88.0778,-1.72,11.79,2 
DISL,ioos:station:DISL:DISL:1,2016-01-06T17:00:00Z,30.2513,-88.0778,-1.72,11.87,2 
DISL,ioos:station:DISL:DISL:1,2016-01-06T17:30:00Z,30.2513,-88.0778,-1.72,11.93,2 
DISL,ioos:station:DISL:DISL:1,2016-01-06T18:00:00Z,30.2513,-88.0778,-1.72,11.88,2 
DISL,ioos:station:DISL:DISL:1,2016-01-06T18:30:00Z,30.2513,-88.0778,-1.72,11.97,2 
DISL,ioos:station:DISL:DISL:1,2016-01-06T19:00:00Z,30.2513,-88.0778,-1.72,12.17,2 
DISL,ioos:station:DISL:DISL:1,2016-01-06T19:30:00Z,30.2513,-88.0778,-1.72,12.15,2 
DISL,ioos:station:DISL:DISL:1,2016-01-06T20:00:00Z,30.2513,-88.0778,-1.72,12.13,2 
DISL,ioos:station:DISL:DISL:1,2016-01-06T20:30:00Z,30.2513,-88.0778,-1.72,12.16,2 
DISL,ioos:station:DISL:DISL:1,2016-01-06T21:00:00Z,30.2513,-88.0778,-1.72,12.13,2 
DISL,ioos:station:DISL:DISL:1,2016-01-06T21:30:00Z,30.2513,-88.0778,-1.72,12.14,2 
DISL,ioos:station:DISL:DISL:1,2016-01-06T22:00:00Z,30.2513,-88.0778,-1.72,12.37,2 
DISL,ioos:station:DISL:DISL:1,2016-01-06T22:30:00Z,30.2513,-88.0778,-1.72,13.77,2 
DISL,ioos:station:DISL:DISL:1,2016-01-06T23:00:00Z,30.2513,-88.0778,-1.72,14.55,2 
DISL,ioos:station:DISL:DISL:1,2016-01-06T23:30:00Z,30.2513,-88.0778,-1.72,15.54,2 